Location: Lakeview Terrace
(41.4931°N, 81.7101°W)
Time: 20:28:09
(UTC+00:00)

CZ-4B R/B - Pass Details

Date: 29 October 2020
Orbit: 388 x 461 km, 97.6° (Epoch: 03 December)

Event Time Altitude Azimuth Distance (km) Brightness Sun altitude
Rises 23:21:45 0° 6° (N) 2,376 4.9 -11.2°
Reaches altitude 10° 23:23:49 10° 0° (N) 1,494 4.0 -11.6°
Maximum altitude 23:26:53 46° 286° (WNW) 557 2.3 -12.2°
Drops below altitude 10° 23:29:51 10° 212° (SSW) 1,447 4.5 -12.7°
Sets 23:31:50 0° 206° (SSW) 2,290 5.5 -13.1°
